Вернуться в каталог

DELTA 1 DEB

АктивенSSO
NORAD 12198·DEBRIS·🇺🇸 United States

Запущен Mar 5, 1978 с Vandenberg Space Force Base

Loading…

Ближайшие Пролёты (ближайшие 24 часа)

TLE

СвежийSource: Space-Track

Эпоха: Sep 14, 2026, 06:11 UTC

1 12198U 78026AP  26257.25811777  .00000267  00000-0  18778-3 0  9993
2 12198  99.1462 174.5499 0117755  24.5233 336.1472 14.03388215323669

Отслеживайте DELTA 1 DEB в реальном времени с AllMySat

Download on the App Store